| time (UTC) | temp F | wind direction | speed MPH | gust MPH | rain 1hr in | rain 24hr in | rain mn in | humidity % | barometer mb |
| 20260509124101 | 68 | 280 | 4.0 | 6.0 | 0.00 | 0.09 | 0.00 | 90 | 1010.6 |
| 20260509123604 | 68 | 309 | 4.0 | 6.0 | 0.00 | 0.09 | 0.00 | 90 | 1010.4 |
| 20260509123101 | 68 | 309 | 4.0 | 6.0 | 0.00 | 0.09 | 0.00 | 90 | 1010.4 |
| 20260509122559 | 67 | 299 | 4.0 | 6.0 | 0.00 | 0.09 | 0.00 | 90 | 1010.6 |
| 20260509122100 | 67 | 283 | 4.0 | 6.0 | 0.00 | 0.09 | 0.00 | 91 | 1010.4 |
| 20260509121601 | 67 | 302 | 5.0 | 6.0 | 0.00 | 0.09 | 0.00 | 91 | 1010.4 |
| 20260509121104 | 67 | 301 | 3.0 | 6.0 | 0.00 | 0.09 | 0.00 | 91 | 1010.4 |
| 20260509120601 | 67 | 290 | 3.0 | 7.0 | 0.00 | 0.09 | 0.00 | 91 | 1010.4 |
| 20260509120101 | 67 | 311 | 3.0 | 9.0 | 0.00 | 0.09 | 0.00 | 91 | 1010.4 |
| 20260509115600 | 67 | 287 | 5.0 | 9.0 | 0.00 | 0.09 | 0.00 | 91 | 1010.3 |
| 20260509115100 | 67 | 308 | 4.0 | 7.0 | 0.00 | 0.09 | 0.00 | 91 | 1010.2 |
| 20260509114601 | 67 | 299 | 4.0 | 7.0 | 0.00 | 0.09 | 0.00 | 91 | 1010.0 |
| 20260509114059 | 67 | 295 | 4.0 | 8.0 | 0.00 | 0.09 | 0.00 | 91 | 1010.0 |
| 20260509113600 | 67 | 9 | 5.0 | 9.0 | 0.00 | 0.09 | 0.00 | 91 | 1010.1 |
| 20260509113100 | 67 | 302 | 6.0 | 9.0 | 0.00 | 0.09 | 0.00 | 91 | 1009.7 |
| 20260509112559 | 67 | 311 | 4.0 | 8.0 | 0.00 | 0.09 | 0.00 | 91 | 1009.6 |
| 20260509112059 | 67 | 289 | 5.0 | 8.0 | 0.00 | 0.09 | 0.00 | 91 | 1009.7 |
| 20260509111559 | 67 | 314 | 5.0 | 7.0 | 0.00 | 0.09 | 0.00 | 91 | 1009.3 |
| 20260509111059 | 67 | 294 | 5.0 | 7.0 | 0.00 | 0.09 | 0.00 | 91 | 1009.4 |
| 20260509110602 | 67 | 288 | 3.0 | 6.0 | 0.00 | 0.09 | 0.00 | 91 | 1009.5 |
| 20260509110100 | 67 | 281 | 3.0 | 8.0 | 0.00 | 0.09 | 0.00 | 91 | 1009.3 |
| 20260509105604 | 67 | 271 | 4.0 | 8.0 | 0.00 | 0.13 | 0.00 | 91 | 1009.2 |
| 20260509105100 | 67 | 287 | 3.0 | 6.0 | 0.00 | 0.13 | 0.00 | 91 | 1009.2 |
| 20260509104601 | 67 | 293 | 2.0 | 6.0 | 0.00 | 0.13 | 0.00 | 91 | 1009.1 |
| 20260509104100 | 67 | 285 | 3.0 | 7.0 | 0.00 | 0.13 | 0.00 | 91 | 1009.0 |
| 20260509103559 | 67 | 290 | 4.0 | 7.0 | 0.00 | 0.13 | 0.00 | 91 | 1008.9 |
| 20260509103059 | 67 | 295 | 4.0 | 6.0 | 0.00 | 0.13 | 0.00 | 90 | 1008.8 |
| 20260509102559 | 68 | 295 | 2.0 | 3.0 | 0.00 | 0.13 | 0.00 | 90 | 1008.7 |
| 20260509102100 | 68 | 0 | 0.0 | 0.0 | 0.00 | 0.13 | 0.00 | 90 | 1008.7 |
| 20260509101605 | 68 | 0 | 0.0 | 0.0 | 0.00 | 0.13 | 0.00 | 89 | 1008.6 |
| 20260509101059 | 68 | 0 | 0.0 | 0.0 | 0.00 | 0.13 | 0.00 | 90 | 1008.6 |
| 20260509100556 | 68 | 0 | 0.0 | 0.0 | 0.00 | 0.13 | 0.00 | 90 | 1008.7 |
| 20260509100059 | 68 | 0 | 0.0 | 1.0 | 0.00 | 0.13 | 0.00 | 89 | 1008.6 |
| 20260509095559 | 69 | 0 | 0.0 | 2.0 | 0.00 | 0.14 | 0.00 | 89 | 1008.4 |
| 20260509095059 | 69 | 0 | 0.0 | 2.0 | 0.00 | 0.14 | 0.00 | 89 | 1008.3 |
| 20260509094558 | 69 | 122 | 0.0 | 5.0 | 0.00 | 0.14 | 0.00 | 89 | 1008.3 |
| 20260509094059 | 69 | 96 | 1.0 | 5.0 | 0.00 | 0.14 | 0.00 | 89 | 1008.2 |
| 20260509093603 | 69 | 54 | 2.0 | 5.0 | 0.00 | 0.14 | 0.00 | 88 | 1008.0 |
| 20260509093100 | 69 | 41 | 2.0 | 8.0 | 0.00 | 0.14 | 0.00 | 88 | 1007.9 |
| 20260509092602 | 69 | 70 | 3.0 | 8.0 | 0.00 | 0.14 | 0.00 | 88 | 1007.8 |
| 20260509092059 | 69 | 39 | 5.0 | 10.0 | 0.00 | 0.14 | 0.00 | 88 | 1007.6 |
| 20260509091600 | 70 | 67 | 3.0 | 11.0 | 0.00 | 0.14 | 0.00 | 87 | 1007.5 |
| 20260509091059 | 70 | 76 | 6.0 | 11.0 | 0.00 | 0.14 | 0.00 | 87 | 1007.8 |
| 20260509090600 | 70 | 39 | 4.0 | 6.0 | 0.00 | 0.14 | 0.00 | 86 | 1007.8 |
| 20260509090057 | 70 | 34 | 2.0 | 4.0 | 0.00 | 0.14 | 0.00 | 85 | 1007.8 |
| 20260509085559 | 70 | 39 | 2.0 | 4.0 | 0.00 | 0.14 | 0.00 | 85 | 1007.6 |
| 20260509085102 | 70 | 39 | 2.0 | 4.0 | 0.00 | 0.14 | 0.00 | 85 | 1007.5 |
| 20260509084605 | 70 | 11 | 2.0 | 8.0 | 0.00 | 0.14 | 0.00 | 85 | 1007.4 |
| 20260509084059 | 70 | 8 | 2.0 | 9.0 | 0.00 | 0.14 | 0.00 | 84 | 1007.1 |
| 20260509083559 | 70 | 5 | 4.0 | 11.0 | 0.00 | 0.14 | 0.00 | 84 | 1007.1 |
| 20260509083100 | 70 | 307 | 6.0 | 11.0 | 0.00 | 0.14 | 0.00 | 84 | 1007.0 |
| 20260509082600 | 70 | 257 | 4.0 | 7.0 | 0.00 | 0.14 | 0.00 | 84 | 1006.5 |
| 20260509082100 | 70 | 146 | 3.0 | 9.0 | 0.00 | 0.14 | 0.00 | 84 | 1006.0 |
| 20260509081601 | 70 | 185 | 4.0 | 9.0 | 0.00 | 0.14 | 0.00 | 84 | 1005.9 |
| 20260509081100 | 70 | 181 | 1.0 | 12.0 | 0.00 | 0.14 | 0.00 | 86 | 1006.0 |
| 20260509080559 | 70 | 193 | 4.0 | 12.0 | 0.00 | 0.14 | 0.00 | 86 | 1005.9 |
| 20260509080059 | 70 | 245 | 7.0 | 12.0 | 0.00 | 0.14 | 0.00 | 87 | 1006.1 |
| 20260509075600 | 70 | 105 | 7.0 | 12.0 | 0.00 | 0.14 | 0.00 | 87 | 1006.4 |
| 20260509075101 | 70 | 243 | 7.0 | 16.0 | 0.00 | 0.14 | 0.00 | 87 | 1006.6 |
| 20260509074607 | 70 | 174 | 7.0 | 16.0 | 0.00 | 0.14 | 0.00 | 87 | 1007.0 |
| 20260509074100 | 70 | 173 | 7.0 | 14.0 | 0.00 | 0.14 | 0.00 | 87 | 1007.3 |
| 20260509073600 | 70 | 209 | 8.0 | 15.0 | 0.00 | 0.14 | 0.00 | 87 | 1007.7 |
| 20260509073102 | 70 | 170 | 8.0 | 15.0 | 0.00 | 0.14 | 0.00 | 87 | 1008.0 |
| 20260509072601 | 70 | 152 | 6.0 | 15.0 | 0.00 | 0.14 | 0.00 | 88 | 1008.4 |
| 20260509072059 | 70 | 207 | 6.0 | 14.0 | 0.00 | 0.14 | 0.00 | 88 | 1008.7 |
| 20260509071608 | 70 | 239 | 8.0 | 14.0 | 0.00 | 0.14 | 0.00 | 88 | 1008.6 |
| 20260509071101 | 70 | 223 | 8.0 | 14.0 | 0.00 | 0.14 | 0.00 | 88 | 1008.7 |
| 20260509070600 | 69 | 211 | 5.0 | 12.0 | 0.00 | 0.14 | 0.00 | 88 | 1008.9 |
| 20260509070101 | 69 | 198 | 5.0 | 12.0 | 0.00 | 0.14 | 0.00 | 89 | 1009.1 |
| 20260509065604 | 69 | 218 | 6.0 | 11.0 | 0.00 | 0.14 | 0.00 | 89 | 1009.3 |
| 20260509065100 | 69 | 211 | 3.0 | 11.0 | 0.00 | 0.14 | 0.00 | 89 | 1009.5 |
| 20260509064618 | 68 | 190 | 5.0 | 11.0 | 0.00 | 0.14 | 0.00 | 90 | 1009.4 |
| 20260509064101 | 68 | 198 | 4.0 | 8.0 | 0.00 | 0.14 | 0.00 | 90 | 1009.5 |
| 20260509063600 | 68 | 224 | 3.0 | 6.0 | 0.00 | 0.14 | 0.00 | 90 | 1009.8 |
| 20260509063101 | 68 | 241 | 1.0 | 4.0 | 0.00 | 0.14 | 0.00 | 90 | 1010.2 |
| 20260509062600 | 67 | 158 | 1.0 | 6.0 | 0.00 | 0.14 | 0.00 | 90 | 1010.4 |
| 20260509062100 | 67 | 241 | 2.0 | 6.0 | 0.00 | 0.14 | 0.00 | 90 | 1010.5 |
| 20260509061623 | 67 | 266 | 2.0 | 6.0 | 0.00 | 0.14 | 0.00 | 90 | 1010.4 |
| 20260509061100 | 67 | 238 | 2.0 | 4.0 | 0.00 | 0.14 | 0.00 | 89 | 1010.4 |
| 20260509060600 | 67 | 209 | 1.0 | 4.0 | 0.00 | 0.14 | 0.00 | 89 | 1010.4 |
| 20260509055601 | 67 | 0 | 1.0 | 2.0 | 0.00 | 0.14 | 0.00 | 89 | 1010.4 |
| 20260509055100 | 67 | 242 | 0.0 | 4.0 | 0.00 | 0.14 | 0.00 | 89 | 1010.4 |
| 20260509054601 | 68 | 0 | 1.0 | 4.0 | 0.00 | 0.14 | 0.00 | 88 | 1010.4 |
| 20260509054101 | 68 | 208 | 2.0 | 3.0 | 0.00 | 0.14 | 0.00 | 88 | 1010.0 |
| 20260509053613 | 68 | 203 | 0.0 | 4.0 | 0.00 | 0.14 | 0.00 | 88 | 1010.3 |
| 20260509053102 | 68 | 216 | 1.0 | 4.0 | 0.00 | 0.14 | 0.00 | 88 | 1010.3 |
| 20260509052603 | 68 | 203 | 2.0 | 4.0 | 0.00 | 0.14 | 0.00 | 87 | 1010.1 |
| 20260509052103 | 69 | 203 | 2.0 | 4.0 | 0.00 | 0.14 | 0.00 | 87 | 1010.3 |
| 20260509051559 | 69 | 163 | 0.0 | 2.0 | 0.00 | 0.14 | 0.00 | 86 | 1010.7 |
| 20260509051105 | 70 | 338 | 0.0 | 3.0 | 0.00 | 0.14 | 0.00 | 86 | 1011.0 |
| 20260509050602 | 70 | 219 | 0.0 | 9.0 | 0.00 | 0.14 | 0.00 | 86 | 1010.9 |
| 20260509050108 | 70 | 290 | 2.0 | 9.0 | 0.00 | 0.14 | 0.00 | 86 | 1011.3 |
| 20260509045601 | 70 | 310 | 5.0 | 11.0 | 0.00 | 0.14 | 0.14 | 86 | 1011.6 |
| 20260509045101 | 69 | 304 | 6.0 | 12.0 | 0.00 | 0.14 | 0.14 | 87 | 1011.6 |
| 20260509044601 | 69 | 313 | 8.0 | 12.0 | 0.00 | 0.14 | 0.14 | 87 | 1011.6 |
| 20260509044101 | 69 | 316 | 7.0 | 10.0 | 0.00 | 0.14 | 0.14 | 87 | 1011.5 |
| 20260509043600 | 69 | 315 | 0.0 | 2.0 | 0.00 | 0.14 | 0.14 | 86 | 1010.6 |
| 20260509043106 | 69 | 0 | 0.0 | 0.0 | 0.00 | 0.14 | 0.14 | 86 | 1010.0 |
| 20260509042600 | 69 | 0 | 0.0 | 1.0 | 0.00 | 0.14 | 0.14 | 86 | 1010.1 |
| 20260509042101 | 70 | 0 | 0.0 | 2.0 | 0.00 | 0.14 | 0.14 | 86 | 1010.2 |
| 20260509041602 | 70 | 75 | 1.0 | 2.0 | 0.00 | 0.14 | 0.14 | 86 | 1010.3 |
| 20260509041101 | 70 | 67 | 1.0 | 2.0 | 0.00 | 0.14 | 0.14 | 86 | 1010.2 |
| 20260509040600 | 70 | 135 | 0.0 | 1.0 | 0.00 | 0.14 | 0.14 | 85 | 1009.9 |
| 20260509040100 | 70 | 0 | 0.0 | 3.0 | 0.00 | 0.14 | 0.14 | 85 | 1009.7 |
| 20260509035600 | 70 | 148 | 1.0 | 3.0 | 0.00 | 0.14 | 0.14 | 85 | 1009.4 |
| 20260509035100 | 70 | 166 | 1.0 | 3.0 | 0.00 | 0.14 | 0.14 | 85 | 1009.3 |
| 20260509034601 | 71 | 142 | 1.0 | 4.0 | 0.00 | 0.14 | 0.14 | 85 | 1009.3 |
| 20260509034101 | 71 | 162 | 1.0 | 5.0 | 0.00 | 0.14 | 0.14 | 84 | 1009.3 |
| 20260509033602 | 71 | 190 | 2.0 | 5.0 | 0.00 | 0.14 | 0.14 | 84 | 1009.2 |
| 20260509033100 | 71 | 194 | 1.0 | 5.0 | 0.00 | 0.14 | 0.14 | 84 | 1009.2 |
| 20260509032601 | 71 | 143 | 2.0 | 5.0 | 0.00 | 0.14 | 0.14 | 84 | 1009.2 |
| 20260509032100 | 71 | 172 | 2.0 | 5.0 | 0.00 | 0.14 | 0.14 | 84 | 1009.3 |
| 20260509031601 | 71 | 223 | 2.0 | 6.0 | 0.00 | 0.14 | 0.14 | 84 | 1009.5 |
| 20260509031101 | 71 | 172 | 3.0 | 6.0 | 0.00 | 0.14 | 0.14 | 84 | 1010.2 |
| 20260509030559 | 71 | 18 | 3.0 | 6.0 | 0.00 | 0.14 | 0.14 | 85 | 1010.5 |
| 20260509030059 | 70 | 11 | 2.0 | 3.0 | 0.00 | 0.14 | 0.14 | 85 | 1010.4 |
| 20260509025601 | 70 | 332 | 2.0 | 3.0 | 0.00 | 0.14 | 0.14 | 85 | 1010.2 |
| 20260509025059 | 70 | 49 | 2.0 | 4.0 | 0.00 | 0.14 | 0.14 | 85 | 1009.8 |
| 20260509024559 | 70 | 32 | 2.0 | 4.0 | 0.00 | 0.14 | 0.14 | 85 | 1009.5 |
| 20260509024100 | 70 | 19 | 1.0 | 3.0 | 0.00 | 0.14 | 0.14 | 85 | 1009.3 |
| 20260509023559 | 70 | 56 | 1.0 | 3.0 | 0.00 | 0.14 | 0.14 | 85 | 1009.1 |
| 20260509023057 | 70 | 0 | 0.0 | 4.0 | 0.00 | 0.14 | 0.14 | 85 | 1008.9 |
| 20260509022600 | 70 | 115 | 0.0 | 5.0 | 0.00 | 0.14 | 0.14 | 84 | 1008.7 |
| 20260509022103 | 70 | 194 | 2.0 | 5.0 | 0.00 | 0.14 | 0.14 | 84 | 1008.5 |
| 20260509021559 | 70 | 115 | 1.0 | 4.0 | 0.00 | 0.14 | 0.14 | 84 | 1008.3 |
| 20260509021101 | 70 | 166 | 0.0 | 5.0 | 0.00 | 0.14 | 0.14 | 84 | 1008.2 |
| 20260509020559 | 70 | 122 | 1.0 | 5.0 | 0.00 | 0.14 | 0.14 | 84 | 1008.0 |
| 20260509020058 | 71 | 146 | 2.0 | 4.0 | 0.00 | 0.14 | 0.14 | 83 | 1007.8 |
| 20260509015559 | 71 | 144 | 2.0 | 4.0 | 0.00 | 0.14 | 0.14 | 83 | 1007.8 |
| 20260509015101 | 71 | 131 | 1.0 | 5.0 | 0.00 | 0.14 | 0.14 | 82 | 1008.0 |
| 20260509014559 | 71 | 172 | 0.0 | 5.0 | 0.00 | 0.14 | 0.14 | 82 | 1007.9 |
| 20260509014100 | 71 | 162 | 2.0 | 5.0 | 0.00 | 0.14 | 0.14 | 82 | 1007.8 |
| 20260509013600 | 71 | 188 | 1.0 | 4.0 | 0.00 | 0.14 | 0.14 | 81 | 1007.8 |
| 20260509013058 | 72 | 130 | 1.0 | 4.0 | 0.00 | 0.14 | 0.14 | 81 | 1007.7 |
| 20260509012559 | 72 | 165 | 2.0 | 4.0 | 0.00 | 0.14 | 0.14 | 80 | 1007.9 |
| 20260509012101 | 72 | 143 | 1.0 | 4.0 | 0.00 | 0.14 | 0.14 | 80 | 1008.2 |
| 20260509011601 | 72 | 139 | 1.0 | 6.0 | 0.00 | 0.14 | 0.14 | 79 | 1008.3 |
| 20260509011059 | 73 | 162 | 1.0 | 6.0 | 0.00 | 0.14 | 0.14 | 79 | 1008.3 |
| 20260509010559 | 73 | 157 | 2.0 | 6.0 | 0.00 | 0.14 | 0.14 | 79 | 1008.3 |
| 20260509010104 | 73 | 160 | 2.0 | 4.0 | 0.00 | 0.14 | 0.14 | 78 | 1008.3 |
| 20260509005603 | 73 | 157 | 2.0 | 7.0 | 0.00 | 0.14 | 0.14 | 78 | 1008.3 |
| 20260509005059 | 73 | 193 | 1.0 | 8.0 | 0.00 | 0.14 | 0.14 | 78 | 1008.3 |
| 20260509004621 | 73 | 196 | 4.0 | 8.0 | 0.00 | 0.14 | 0.14 | 77 | 1008.2 |
| 20260509004100 | 74 | 209 | 2.0 | 4.0 | 0.00 | 0.14 | 0.14 | 77 | 1008.1 |
| 20260509003604 | 74 | 157 | 2.0 | 5.0 | 0.00 | 0.14 | 0.14 | 77 | 1008.0 |
| 20260509003058 | 74 | 165 | 2.0 | 5.0 | 0.00 | 0.14 | 0.14 | 76 | 1008.0 |
| 20260509002559 | 74 | 155 | 2.0 | 5.0 | 0.00 | 0.14 | 0.14 | 76 | 1007.8 |
| 20260509002100 | 75 | 151 | 2.0 | 9.0 | 0.00 | 0.14 | 0.14 | 76 | 1007.8 |
| 20260509001559 | 75 | 137 | 2.0 | 9.0 | 0.00 | 0.14 | 0.14 | 75 | 1007.8 |
| 20260509001100 | 75 | 207 | 4.0 | 9.0 | 0.00 | 0.14 | 0.14 | 75 | 1007.6 |
| 20260509000559 | 75 | 158 | 5.0 | 9.0 | 0.00 | 0.14 | 0.14 | 74 | 1007.7 |
| 20260509000100 | 75 | 207 | 5.0 | 9.0 | 0.00 | 0.14 | 0.14 | 74 | 1007.8 |
| 20260508235600 | 76 | 141 | 4.0 | 10.0 | 0.00 | 0.14 | 0.14 | 73 | 1007.8 |
| 20260508235101 | 76 | 175 | 4.0 | 10.0 | 0.00 | 0.14 | 0.14 | 73 | 1007.8 |
| 20260508234605 | 76 | 222 | 5.0 | 10.0 | 0.00 | 0.14 | 0.14 | 73 | 1008.0 |
| 20260508234101 | 76 | 214 | 4.0 | 10.0 | 0.00 | 0.14 | 0.14 | 73 | 1008.0 |
| 20260508233600 | 76 | 160 | 4.0 | 10.0 | 0.00 | 0.14 | 0.14 | 72 | 1008.0 |
| 20260508233103 | 76 | 176 | 5.0 | 10.0 | 0.00 | 0.14 | 0.14 | 72 | 1008.0 |
| 20260508232559 | 76 | 170 | 4.0 | 10.0 | 0.00 | 0.14 | 0.14 | 72 | 1008.0 |
| 20260508232100 | 76 | 149 | 3.0 | 10.0 | 0.00 | 0.14 | 0.14 | 72 | 1008.1 |
| 20260508231559 | 76 | 217 | 4.0 | 10.0 | 0.00 | 0.14 | 0.14 | 71 | 1008.1 |
| 20260508231100 | 76 | 123 | 5.0 | 9.0 | 0.00 | 0.14 | 0.14 | 71 | 1008.0 |
| 20260508230600 | 77 | 171 | 4.0 | 8.0 | 0.00 | 0.14 | 0.14 | 70 | 1008.0 |
| 20260508230059 | 77 | 160 | 4.0 | 10.0 | 0.00 | 0.14 | 0.14 | 70 | 1008.1 |
| 20260508225559 | 77 | 175 | 4.0 | 10.0 | 0.00 | 0.14 | 0.14 | 70 | 1008.0 |
| 20260508225100 | 77 | 207 | 5.0 | 10.0 | 0.00 | 0.14 | 0.14 | 70 | 1008.1 |
| 20260508224559 | 77 | 207 | 4.0 | 9.0 | 0.00 | 0.14 | 0.14 | 69 | 1008.1 |
| 20260508224102 | 77 | 236 | 4.0 | 9.0 | 0.00 | 0.14 | 0.14 | 69 | 1008.1 |
| 20260508223600 | 77 | 236 | 3.0 | 9.0 | 0.00 | 0.14 | 0.14 | 70 | 1008.2 |
| 20260508223100 | 77 | 206 | 3.0 | 10.0 | 0.00 | 0.14 | 0.14 | 69 | 1008.3 |
| 20260508222559 | 77 | 111 | 3.0 | 10.0 | 0.00 | 0.14 | 0.14 | 69 | 1008.3 |
| 20260508222101 | 77 | 159 | 5.0 | 10.0 | 0.00 | 0.14 | 0.14 | 68 | 1008.3 |
| 20260508221558 | 77 | 210 | 6.0 | 9.0 | 0.00 | 0.14 | 0.14 | 69 | 1008.3 |
| 20260508221100 | 77 | 203 | 5.0 | 8.0 | 0.00 | 0.14 | 0.14 | 68 | 1008.3 |
| 20260508220559 | 77 | 183 | 3.0 | 8.0 | 0.00 | 0.14 | 0.14 | 68 | 1008.3 |
| 20260508220100 | 78 | 211 | 3.0 | 9.0 | 0.00 | 0.14 | 0.14 | 68 | 1008.3 |
| 20260508215559 | 77 | 145 | 3.0 | 9.0 | 0.00 | 0.14 | 0.14 | 70 | 1008.3 |
| 20260508215100 | 77 | 163 | 4.0 | 9.0 | 0.00 | 0.14 | 0.14 | 68 | 1008.3 |
| 20260508214607 | 78 | 224 | 4.0 | 9.0 | 0.00 | 0.14 | 0.14 | 69 | 1008.3 |
| 20260508214059 | 78 | 180 | 3.0 | 9.0 | 0.00 | 0.14 | 0.14 | 68 | 1008.3 |
| 20260508213559 | 77 | 131 | 4.0 | 13.0 | 0.00 | 0.14 | 0.14 | 70 | 1008.3 |
| 20260508213056 | 77 | 213 | 5.0 | 13.0 | 0.00 | 0.14 | 0.14 | 69 | 1008.2 |
| 20260508212559 | 77 | 135 | 4.0 | 10.0 | 0.00 | 0.14 | 0.14 | 69 | 1008.3 |
| 20260508212059 | 77 | 195 | 5.0 | 10.0 | 0.00 | 0.14 | 0.14 | 68 | 1008.4 |
| 20260508211557 | 77 | 193 | 4.0 | 9.0 | 0.00 | 0.14 | 0.14 | 68 | 1008.5 |
| 20260508211101 | 78 | 213 | 4.0 | 8.0 | 0.00 | 0.14 | 0.14 | 68 | 1008.5 |
| 20260508210604 | 77 | 184 | 4.0 | 8.0 | 0.00 | 0.14 | 0.14 | 69 | 1008.4 |
| 20260508210059 | 78 | 91 | 4.0 | 8.0 | 0.00 | 0.14 | 0.14 | 69 | 1008.4 |
| 20260508205600 | 78 | 197 | 3.0 | 8.0 | 0.00 | 0.14 | 0.14 | 68 | 1008.4 |
| 20260508205100 | 77 | 198 | 3.0 | 10.0 | 0.00 | 0.14 | 0.14 | 70 | 1008.6 |
| 20260508204600 | 77 | 169 | 3.0 | 11.0 | 0.00 | 0.14 | 0.14 | 70 | 1008.8 |
| 20260508204059 | 76 | 221 | 5.0 | 11.0 | 0.00 | 0.14 | 0.14 | 70 | 1009.1 |
| 20260508203601 | 75 | 176 | 5.0 | 11.0 | 0.00 | 0.14 | 0.14 | 72 | 1009.2 |
| 20260508203102 | 75 | 141 | 5.0 | 11.0 | 0.00 | 0.14 | 0.14 | 69 | 1009.7 |
| 20260508202601 | 75 | 225 | 4.0 | 10.0 | 0.00 | 0.14 | 0.14 | 71 | 1010.0 |
| 20260508202101 | 75 | 196 | 4.0 | 10.0 | 0.00 | 0.14 | 0.14 | 71 | 1010.2 |
| 20260508201558 | 75 | 170 | 6.0 | 9.0 | 0.00 | 0.14 | 0.14 | 71 | 1010.3 |
| 20260508201154 | 75 | 153 | 4.0 | 9.0 | 0.00 | 0.14 | 0.14 | 70 | 1010.3 |
| 20260508200600 | 76 | 229 | 4.0 | 10.0 | 0.00 | 0.14 | 0.14 | 70 | 1010.4 |
| 20260508200100 | 76 | 153 | 4.0 | 10.0 | 0.00 | 0.14 | 0.14 | 70 | 1010.4 |
| 20260508195600 | 76 | 274 | 6.0 | 10.0 | 0.00 | 0.14 | 0.14 | 68 | 1010.4 |
| 20260508195103 | 76 | 178 | 4.0 | 9.0 | 0.00 | 0.14 | 0.14 | 69 | 1010.4 |
| 20260508194559 | 77 | 229 | 3.0 | 9.0 | 0.00 | 0.14 | 0.14 | 70 | 1010.4 |
| 20260508194059 | 77 | 159 | 4.0 | 10.0 | 0.00 | 0.14 | 0.14 | 68 | 1010.4 |
| 20260508193601 | 77 | 199 | 4.0 | 10.0 | 0.00 | 0.14 | 0.14 | 70 | 1010.4 |
| 20260508193120 | 76 | 165 | 5.0 | 10.0 | 0.00 | 0.14 | 0.14 | 68 | 1010.4 |
| 20260508192600 | 77 | 226 | 5.0 | 10.0 | 0.00 | 0.14 | 0.14 | 67 | 1010.5 |
| 20260508192103 | 77 | 225 | 5.0 | 8.0 | 0.00 | 0.14 | 0.14 | 67 | 1010.4 |
| 20260508191603 | 77 | 151 | 3.0 | 10.0 | 0.00 | 0.14 | 0.14 | 69 | 1010.4 |
| 20260508191101 | 78 | 226 | 5.0 | 10.0 | 0.00 | 0.14 | 0.14 | 67 | 1010.5 |
| 20260508190601 | 77 | 188 | 4.0 | 10.0 | 0.00 | 0.14 | 0.14 | 68 | 1010.6 |
| 20260508190110 | 78 | 184 | 5.0 | 8.0 | 0.00 | 0.14 | 0.14 | 68 | 1010.6 |
| 20260508185603 | 78 | 177 | 4.0 | 8.0 | 0.00 | 0.14 | 0.14 | 68 | 1010.7 |
| 20260508185101 | 78 | 181 | 2.0 | 6.0 | 0.00 | 0.14 | 0.14 | 68 | 1010.7 |
| 20260508184607 | 77 | 168 | 3.0 | 6.0 | 0.00 | 0.14 | 0.14 | 71 | 1010.8 |
| 20260508184100 | 77 | 199 | 2.0 | 6.0 | 0.00 | 0.14 | 0.14 | 69 | 1010.8 |
| 20260508183600 | 76 | 144 | 3.0 | 9.0 | 0.00 | 0.14 | 0.14 | 70 | 1010.9 |
| 20260508183114 | 76 | 174 | 4.0 | 9.0 | 0.00 | 0.14 | 0.14 | 70 | 1011.0 |
| 20260508182600 | 76 | 198 | 4.0 | 8.0 | 0.00 | 0.14 | 0.14 | 69 | 1010.9 |
| 20260508182100 | 76 | 148 | 4.0 | 7.0 | 0.00 | 0.14 | 0.14 | 70 | 1011.0 |
| 20260508181603 | 76 | 172 | 3.0 | 8.0 | 0.00 | 0.14 | 0.14 | 70 | 1011.1 |
| 20260508181104 | 76 | 157 | 3.0 | 8.0 | 0.00 | 0.14 | 0.14 | 72 | 1011.2 |
| 20260508180601 | 76 | 208 | 4.0 | 7.0 | 0.00 | 0.14 | 0.14 | 71 | 1011.3 |
| 20260508180121 | 76 | 153 | 4.0 | 6.0 | 0.00 | 0.14 | 0.14 | 71 | 1011.5 |
| 20260508175601 | 75 | 131 | 3.0 | 11.0 | 0.00 | 0.14 | 0.14 | 69 | 1011.5 |
| 20260508175101 | 75 | 207 | 5.0 | 11.0 | 0.00 | 0.14 | 0.14 | 69 | 1011.6 |
| 20260508174614 | 76 | 179 | 1.0 | 7.0 | 0.00 | 0.14 | 0.14 | 72 | 1011.7 |
| 20260508174102 | 75 | 186 | 3.0 | 7.0 | 0.00 | 0.14 | 0.14 | 71 | 1011.8 |
| 20260508173601 | 75 | 160 | 1.0 | 7.0 | 0.00 | 0.14 | 0.14 | 71 | 1011.8 |
| 20260508173102 | 75 | 221 | 2.0 | 5.0 | 0.00 | 0.14 | 0.14 | 69 | 1011.9 |
| 20260508172600 | 74 | 214 | 2.0 | 5.0 | 0.00 | 0.14 | 0.14 | 70 | 1011.8 |
| 20260508172101 | 74 | 224 | 2.0 | 7.0 | 0.00 | 0.14 | 0.14 | 72 | 1011.8 |
| 20260508171607 | 73 | 109 | 3.0 | 8.0 | 0.00 | 0.14 | 0.14 | 73 | 1012.0 |
| 20260508171103 | 73 | 190 | 3.0 | 9.0 | 0.00 | 0.14 | 0.14 | 73 | 1012.0 |
| 20260508170600 | 73 | 142 | 4.0 | 10.0 | 0.00 | 0.14 | 0.14 | 74 | 1012.1 |
| 20260508170107 | 73 | 115 | 3.0 | 10.0 | 0.00 | 0.14 | 0.14 | 72 | 1012.2 |
| 20260508165600 | 72 | 167 | 2.0 | 7.0 | 0.00 | 0.14 | 0.14 | 73 | 1012.4 |
| 20260508165100 | 72 | 136 | 3.0 | 7.0 | 0.00 | 0.14 | 0.14 | 74 | 1012.5 |
| 20260508164600 | 71 | 216 | 3.0 | 5.0 | 0.00 | 0.14 | 0.14 | 76 | 1012.6 |
| 20260508164100 | 70 | 193 | 3.0 | 8.0 | 0.00 | 0.14 | 0.14 | 75 | 1012.8 |
| 20260508163603 | 70 | 221 | 4.0 | 8.0 | 0.00 | 0.14 | 0.14 | 74 | 1012.9 |
| 20260508163058 | 70 | 148 | 3.0 | 7.0 | 0.00 | 0.14 | 0.14 | 76 | 1013.0 |
| 20260508162600 | 70 | 211 | 3.0 | 7.0 | 0.00 | 0.14 | 0.14 | 76 | 1013.2 |
| 20260508162100 | 69 | 155 | 3.0 | 7.0 | 0.00 | 0.14 | 0.14 | 77 | 1013.2 |
| 20260508161607 | 69 | 157 | 4.0 | 6.0 | 0.00 | 0.14 | 0.14 | 76 | 1013.3 |
| 20260508161059 | 69 | 136 | 2.0 | 4.0 | 0.00 | 0.14 | 0.14 | 78 | 1013.3 |
| 20260508160601 | 68 | 210 | 1.0 | 3.0 | 0.00 | 0.14 | 0.14 | 80 | 1013.4 |
| 20260508160059 | 68 | 231 | 0.0 | 3.0 | 0.01 | 0.14 | 0.14 | 81 | 1013.4 |
| 20260508155559 | 67 | 171 | 1.0 | 4.0 | 0.06 | 0.14 | 0.14 | 83 | 1013.5 |
| 20260508155100 | 67 | 181 | 1.0 | 5.0 | 0.09 | 0.14 | 0.14 | 83 | 1013.5 |
| 20260508154559 | 66 | 217 | 2.0 | 5.0 | 0.09 | 0.14 | 0.14 | 84 | 1013.6 |
| 20260508154059 | 66 | 203 | 1.0 | 3.0 | 0.09 | 0.14 | 0.14 | 85 | 1013.6 |
| 20260508153600 | 65 | 182 | 0.0 | 1.0 | 0.09 | 0.14 | 0.14 | 86 | 1013.6 |
| 20260508153059 | 65 | 168 | 0.0 | 1.0 | 0.09 | 0.14 | 0.14 | 86 | 1013.8 |
| 20260508152559 | 64 | 153 | 0.0 | 2.0 | 0.09 | 0.14 | 0.14 | 86 | 1013.7 |
| 20260508152059 | 64 | 0 | 0.0 | 2.0 | 0.09 | 0.14 | 0.14 | 87 | 1013.8 |
| 20260508151602 | 63 | 0 | 0.0 | 2.0 | 0.09 | 0.14 | 0.14 | 87 | 1013.8 |
| 20260508151100 | 63 | 0 | 0.0 | 2.0 | 0.09 | 0.14 | 0.14 | 86 | 1013.7 |
| 20260508150559 | 63 | 215 | 0.0 | 2.0 | 0.09 | 0.14 | 0.14 | 85 | 1013.9 |
| 20260508150056 | 64 | 212 | 1.0 | 6.0 | 0.08 | 0.13 | 0.13 | 84 | 1013.9 |
| 20260508145558 | 64 | 185 | 3.0 | 6.0 | 0.03 | 0.08 | 0.08 | 82 | 1013.7 |
| 20260508145100 | 65 | 158 | 2.0 | 7.0 | 0.00 | 0.05 | 0.05 | 82 | 1014.3 |
| 20260508144609 | 65 | 183 | 3.0 | 7.0 | 0.00 | 0.05 | 0.05 | 80 | 1014.1 |
| 20260508144101 | 66 | 190 | 3.0 | 6.0 | 0.00 | 0.05 | 0.05 | 80 | 1014.0 |
| 20260508143600 | 66 | 158 | 2.0 | 4.0 | 0.00 | 0.05 | 0.05 | 81 | 1014.0 |
| 20260508143102 | 66 | 131 | 1.0 | 3.0 | 0.00 | 0.05 | 0.05 | 81 | 1014.1 |
| 20260508142559 | 66 | 193 | 1.0 | 4.0 | 0.00 | 0.05 | 0.05 | 83 | 1014.0 |
| 20260508142100 | 65 | 212 | 0.0 | 4.0 | 0.00 | 0.05 | 0.05 | 83 | 1014.1 |
| 20260508141607 | 65 | 0 | 1.0 | 4.0 | 0.00 | 0.05 | 0.05 | 83 | 1014.3 |
| 20260508141059 | 65 | 189 | 0.0 | 4.0 | 0.00 | 0.05 | 0.05 | 83 | 1014.1 |
| 20260508140559 | 64 | 204 | 0.0 | 4.0 | 0.00 | 0.05 | 0.05 | 82 | 1014.5 |
| 20260508140057 | 64 | 0 | 2.0 | 4.0 | 0.00 | 0.05 | 0.05 | 82 | 1014.7 |
| 20260508135600 | 65 | 0 | 1.0 | 5.0 | 0.00 | 0.05 | 0.05 | 82 | 1014.4 |
| 20260508135059 | 65 | 142 | 2.0 | 5.0 | 0.00 | 0.05 | 0.05 | 84 | 1014.1 |
| 20260508134559 | 65 | 140 | 0.0 | 4.0 | 0.00 | 0.05 | 0.05 | 85 | 1014.2 |
| 20260508134100 | 65 | 212 | 1.0 | 4.0 | 0.00 | 0.05 | 0.05 | 84 | 1014.2 |
| 20260508133600 | 64 | 85 | 0.0 | 4.0 | 0.00 | 0.05 | 0.05 | 87 | 1014.2 |
| 20260508133105 | 63 | 79 | 2.0 | 4.0 | 0.00 | 0.05 | 0.05 | 86 | 1014.0 |
| 20260508132600 | 63 | 81 | 0.0 | 3.0 | 0.00 | 0.05 | 0.05 | 88 | 1014.0 |
| 20260508132100 | 63 | 129 | 0.0 | 6.0 | 0.00 | 0.05 | 0.05 | 89 | 1014.1 |
| 20260508131609 | 62 | 0 | 0.0 | 6.0 | 0.00 | 0.05 | 0.05 | 89 | 1014.3 |
| 20260508131100 | 62 | 212 | 2.0 | 6.0 | 0.00 | 0.05 | 0.05 | 89 | 1014.0 |
| 20260508130559 | 61 | 204 | 2.0 | 5.0 | 0.00 | 0.05 | 0.05 | 90 | 1013.9 |
| 20260508130058 | 61 | 163 | 1.0 | 3.0 | 0.00 | 0.05 | 0.05 | 90 | 1014.2 |
| 20260508125600 | 61 | 136 | 0.0 | 3.0 | 0.00 | 0.05 | 0.05 | 91 | 1014.2 |
| 20260508125103 | 61 | 186 | 0.0 | 3.0 | 0.00 | 0.05 | 0.05 | 91 | 1014.1 |
| 20260508124557 | 60 | 173 | 1.0 | 3.0 | 0.00 | 0.05 | 0.05 | 91 | 1014.2 |